When you browse on this site, cookies collect data to enhance your experience and personalize the content and advertising you see.
Visit our Privacy Policy to learn more. By continuing to use the site, you agree to this use of cookies and data.
  • In Österreich
  • Länderverzeichnis
  • Für 7 Tage
  • Wassertemperatur
  • Satellitenkarten
  • Wetterkarte
  • News
  • Widgets
  • user-avatar
    Anmelden

    Stündliche Wetter Orange Walk

    Heute, 26 Juni, Mittwoch

    Zeit Temperatur Niederschläge Wind Luftdruck Luftfeuchtigkeit
    00:00 +26°C° 0 mm 1 m/S 759 mmHg 95%
    01:00 +26°C° 0 mm 1 m/S 758 mmHg 95%
    02:00 +26°C° 0 mm 1 m/S 758 mmHg 95%
    03:00 +26°C° 0 mm 1 m/S 757 mmHg 95%
    04:00 +26°C° 0 mm 1 m/S 758 mmHg 94%
    05:00 +26°C° 0 mm 2 m/S 758 mmHg 92%
    06:00 +27°C° 0 mm 2 m/S 758 mmHg 91%
    07:00 +29°C° 0 mm 2 m/S 759 mmHg 81%
    08:00 +31°C° 0 mm 3 m/S 759 mmHg 72%
    09:00 +33°C° 0 mm 3 m/S 759 mmHg 63%
    10:00 +35°C° 0 mm 4 m/S 759 mmHg 57%
    11:00 +36°C° 0 mm 4 m/S 759 mmHg 52%
    12:00 +37°C° 0 mm 4 m/S 759 mmHg 46%
    13:00 +37°C° 0 mm 5 m/S 758 mmHg 46%
    14:00 +36°C° 0 mm 5 m/S 757 mmHg 46%
    15:00 +36°C° 0 mm 5 m/S 757 mmHg 46%
    16:00 +34°C° 0 mm 4 m/S 757 mmHg 53%
    17:00 +33°C° 0 mm 4 m/S 757 mmHg 61%
    18:00 +31°C° 0 mm 3 m/S 757 mmHg 68%
    19:00 +29°C° 0 mm 2 m/S 758 mmHg 75%
    20:00 +28°C° 0 mm 2 m/S 758 mmHg 81%
    21:00 +27°C° 0 mm 1 m/S 759 mmHg 87%
    22:00 +27°C° 0 mm 1 m/S 759 mmHg 89%
    23:00 +27°C° 0 mm 1 m/S 759 mmHg 91%

    Morgen, 27 Juni, Donnerstag

    Zeit Temperatur Niederschläge Wind Luftdruck Luftfeuchtigkeit
    00:00 +26°C° 0 mm 1 m/S 759 mmHg 93%
    01:00 +26°C° 0.1 mm 1 m/S 758 mmHg 93%
    02:00 +26°C° 0.1 mm 1 m/S 758 mmHg 94%
    03:00 +26°C° 0.1 mm 1 m/S 758 mmHg 95%
    04:00 +26°C° 0 mm 1 m/S 758 mmHg 95%
    05:00 +26°C° 0 mm 1 m/S 758 mmHg 94%
    06:00 +26°C° 0 mm 1 m/S 758 mmHg 94%
    07:00 +28°C° 0.1 mm 2 m/S 759 mmHg 84%
    08:00 +30°C° 0.1 mm 2 m/S 759 mmHg 73%
    09:00 +33°C° 0.1 mm 3 m/S 759 mmHg 63%
    10:00 +35°C° 0 mm 3 m/S 759 mmHg 56%
    11:00 +36°C° 0 mm 4 m/S 759 mmHg 50%
    12:00 +37°C° 0 mm 4 m/S 759 mmHg 44%
    13:00 +37°C° 0 mm 4 m/S 758 mmHg 45%
    14:00 +37°C° 0 mm 4 m/S 758 mmHg 46%
    15:00 +36°C° 0 mm 4 m/S 757 mmHg 47%
    16:00 +35°C° 0 mm 4 m/S 757 mmHg 53%
    17:00 +33°C° 0 mm 3 m/S 757 mmHg 58%
    18:00 +31°C° 0 mm 3 m/S 757 mmHg 64%
    19:00 +30°C° 0 mm 2 m/S 758 mmHg 72%
    20:00 +28°C° 0 mm 2 m/S 758 mmHg 80%
    21:00 +27°C° 0 mm 2 m/S 759 mmHg 88%
    22:00 +27°C° 0 mm 1 m/S 759 mmHg 90%
    23:00 +26°C° 0 mm 1 m/S 759 mmHg 92%

    übermorgen, 28 Juni, Freitag

    Zeit Temperatur Niederschläge Wind Luftdruck Luftfeuchtigkeit
    00:00 +26°C° 0 mm 1 m/S 759 mmHg 94%
    01:00 +26°C° 0 mm 1 m/S 758 mmHg 94%
    02:00 +26°C° 0 mm 1 m/S 758 mmHg 95%
    03:00 +26°C° 0 mm 1 m/S 758 mmHg 96%
    04:00 +26°C° 0 mm 1 m/S 758 mmHg 95%
    05:00 +26°C° 0 mm 1 m/S 758 mmHg 95%
    06:00 +26°C° 0 mm 1 m/S 758 mmHg 95%
    07:00 +28°C° 0 mm 1 m/S 758 mmHg 83%
    08:00 +31°C° 0 mm 2 m/S 759 mmHg 70%
    09:00 +34°C° 0 mm 2 m/S 759 mmHg 58%
    10:00 +35°C° 0 mm 2 m/S 759 mmHg 53%
    11:00 +36°C° 0 mm 3 m/S 758 mmHg 47%
    12:00 +37°C° 0 mm 3 m/S 758 mmHg 41%
    13:00 +37°C° 0 mm 3 m/S 758 mmHg 41%
    14:00 +37°C° 0 mm 3 m/S 757 mmHg 41%
    15:00 +37°C° 0 mm 4 m/S 756 mmHg 41%
    16:00 +35°C° 0 mm 3 m/S 757 mmHg 49%
    17:00 +33°C° 0 mm 3 m/S 757 mmHg 57%
    18:00 +31°C° 0 mm 3 m/S 757 mmHg 65%
    19:00 +29°C° 0 mm 2 m/S 757 mmHg 73%
    20:00 +28°C° 0 mm 2 m/S 758 mmHg 81%
    21:00 +27°C° 0 mm 2 m/S 758 mmHg 89%
    22:00 +26°C° 0.1 mm 1 m/S 758 mmHg 91%
    23:00 +24°C° 0.1 mm 0 m/S 758 mmHg 94%

    29 Juni, Samstag

    Zeit Temperatur Niederschläge Wind Luftdruck Luftfeuchtigkeit
    00:00 +23°C° 0.1 mm 0 m/S 758 mmHg 96%
    01:00 +23°C° 0.1 mm 0 m/S 758 mmHg 96%
    02:00 +23°C° 0.1 mm 0 m/S 758 mmHg 97%
    03:00 +23°C° 0.1 mm 0 m/S 758 mmHg 97%
    04:00 +23°C° 0 mm 0 m/S 758 mmHg 97%
    05:00 +25°C° 0 mm 1 m/S 758 mmHg 96%
    06:00 +25°C° 0 mm 1 m/S 758 mmHg 95%
    07:00 +28°C° 0 mm 1 m/S 759 mmHg 83%
    08:00 +30°C° 0 mm 1 m/S 759 mmHg 70%
    09:00 +33°C° 0 mm 1 m/S 759 mmHg 58%
    10:00 +33°C° 0 mm 1 m/S 759 mmHg 55%
    11:00 +36°C° 0 mm 2 m/S 759 mmHg 47%
    12:00 +37°C° 0 mm 2 m/S 758 mmHg 39%
    13:00 +37°C° 0 mm 3 m/S 758 mmHg 40%
    14:00 +37°C° 0 mm 3 m/S 758 mmHg 40%
    15:00 +36°C° 0 mm 4 m/S 757 mmHg 41%
    16:00 +35°C° 0 mm 3 m/S 757 mmHg 48%
    17:00 +33°C° 0 mm 3 m/S 757 mmHg 55%
    18:00 +30°C° 0 mm 2 m/S 757 mmHg 62%
    19:00 +29°C° 0 mm 2 m/S 758 mmHg 69%
    20:00 +28°C° 0 mm 2 m/S 758 mmHg 77%
    21:00 +27°C° 0 mm 1 m/S 759 mmHg 84%
    22:00 +26°C° 0 mm 1 m/S 759 mmHg 87%
    23:00 +26°C° 0 mm 1 m/S 759 mmHg 89%

    30 Juni, Sonntag

    Zeit Temperatur Niederschläge Wind Luftdruck Luftfeuchtigkeit
    00:00 +24°C° 0 mm 0 m/S 759 mmHg 92%
    01:00 +23°C° 0.4 mm 0 m/S 758 mmHg 93%
    02:00 +23°C° 0.4 mm 0 m/S 758 mmHg 95%
    03:00 +23°C° 0.4 mm 0 m/S 758 mmHg 96%
    04:00 +23°C° 0.4 mm 0 m/S 758 mmHg 95%
    05:00 +23°C° 0.4 mm 0 m/S 758 mmHg 95%
    06:00 +24°C° 0.4 mm 0 m/S 758 mmHg 95%
    07:00 +26°C° 0.7 mm 1 m/S 759 mmHg 93%
    08:00 +26°C° 0.7 mm 1 m/S 759 mmHg 92%
    09:00 +27°C° 0.7 mm 1 m/S 759 mmHg 91%
    10:00 +27°C° 1 mm 1 m/S 759 mmHg 91%
    11:00 +27°C° 1 mm 1 m/S 759 mmHg 91%
    12:00 +27°C° 1 mm 2 m/S 759 mmHg 91%
    13:00 +27°C° 0.5 mm 2 m/S 759 mmHg 90%
    14:00 +27°C° 0.5 mm 3 m/S 758 mmHg 89%
    15:00 +27°C° 0.5 mm 3 m/S 758 mmHg 88%
    16:00 +27°C° 0.6 mm 3 m/S 758 mmHg 90%
    17:00 +26°C° 0.6 mm 3 m/S 758 mmHg 92%
    18:00 +26°C° 0.6 mm 2 m/S 758 mmHg 94%
    19:00 +26°C° 0 mm 2 m/S 758 mmHg 94%
    20:00 +26°C° 0 mm 2 m/S 758 mmHg 95%
    21:00 +26°C° 0 mm 2 m/S 759 mmHg 96%
    22:00 +26°C° 0 mm 2 m/S 759 mmHg 95%
    23:00 +26°C° 0 mm 2 m/S 759 mmHg 94%

    1 Juli, Montag

    Zeit Temperatur Niederschläge Wind Luftdruck Luftfeuchtigkeit
    00:00 +26°C° 0 mm 2 m/S 759 mmHg 94%
    01:00 +26°C° 0.1 mm 2 m/S 758 mmHg 94%
    02:00 +26°C° 0.1 mm 2 m/S 758 mmHg 94%
    03:00 +26°C° 0.1 mm 2 m/S 758 mmHg 94%
    04:00 +26°C° 0.7 mm 2 m/S 758 mmHg 95%
    05:00 +26°C° 0.7 mm 2 m/S 758 mmHg 95%
    06:00 +26°C° 0.7 mm 2 m/S 758 mmHg 95%
    07:00 +27°C° 1 mm 2 m/S 759 mmHg 91%
    08:00 +28°C° 1 mm 3 m/S 760 mmHg 87%
    09:00 +29°C° 1 mm 3 m/S 760 mmHg 84%
    10:00 +32°C° 0.5 mm 4 m/S 760 mmHg 75%
    11:00 +33°C° 0.5 mm 4 m/S 760 mmHg 67%
    12:00 +35°C° 0.5 mm 5 m/S 759 mmHg 58%
    13:00 +35°C° 0 mm 5 m/S 759 mmHg 56%
    14:00 +35°C° 0 mm 5 m/S 758 mmHg 55%
    15:00 +35°C° 0 mm 5 m/S 758 mmHg 54%
    16:00 +34°C° 0 mm 4 m/S 758 mmHg 60%
    17:00 +31°C° 0 mm 3 m/S 758 mmHg 66%
    18:00 +30°C° 0 mm 3 m/S 758 mmHg 73%
    19:00 +29°C° 0 mm 2 m/S 758 mmHg 79%
    20:00 +28°C° 0 mm 2 m/S 759 mmHg 85%
    21:00 +27°C° 0 mm 2 m/S 759 mmHg 91%
    22:00 +27°C° 0 mm 1 m/S 759 mmHg 93%
    23:00 +26°C° 0 mm 1 m/S 759 mmHg 94%
    Mehr zeigen